Location: Unspecified
(0.0000°N, 0.0000°E)
Time: 02:09:53
(UTC+02:00)

Iridium 12 - Visible Passes

Search period start: 23 July 2018 00:00
Search period end: 02 August 2018 00:00
Orbit: 761 x 765 km, 86.4° (Epoch: 22 July)

Date Brightness Start Highest point End Pass type
(mag) Time Alt. Az. Time Alt. Az. Time Alt. Az.
23 Jul 8.0 05:07:01 10° NE 05:09:23 17° ENE 05:09:23 17° ENE visible
23 Jul 6.7 06:46:20 10° NW 06:49:28 23° WNW 06:49:28 23° WNW visible
24 Jul 6.4 06:07:40 10° N 06:10:45 36° NNW 06:10:45 36° NNW visible
25 Jul 7.4 05:30:04 10° NNE 05:32:07 24° NNE 05:32:07 24° NNE visible
26 Jul 7.7 06:33:27 10° NW 06:33:40 11° NW 06:33:40 11° NW visible
27 Jul 7.8 05:54:38 10° NNW 05:55:10 13° NNW 05:55:10 13° NNW visible
